Wind_Speed
3 5 11 19 14 4 11 9 13 5 4 9 7 11 12 13 12 11 11 9 8 7 7 8 9 10 10 11 13 14 16 19 19 19 18 16 16 15 17 19 19 19 20 20
3 8 6 8 10 8 8 12 7 7 8 3 10 8 8 12 14 14 12 10 10 9 9 10 10 11 11 11 12 14 16 19 19 16 16 13 13 14 17 19 19 19 20 20
7 3 10 6 7 8 7 8 15 9 9 6 13 5 7 10 11 13 11 11 9 9 10 10 11 11 10 12 12 13 16 17 18 18 17 16 16 17 21 22 24 22 20 20
5 7 8 8 7 9 8 7 17 22 11 4 11 3 10 12 14 12 11 11 8 9 9 10 11 11 10 10 10 12 15 16 17 18 18 20 19 20 20 21 23 22 21 19
4 9 8 6 5 11 5 13 17 14 7 9 9 5 3 10 14 14 9 8 9 9 10 10 11 10 9 8 10 12 14 15 16 18 18 18 18 18 20 22 24 23 24 20
4 1 4 2 7 11 20 22 12 7 2 4 5 3 5 9 15 14 11 9 11 11 11 12 10 8 8 8 10 12 13 15 16 16 15 15 15 17 20 21 26 25 25 24
3 5 4 16 16 8 8 7 3 2 4 3 1 5 2 9 5 13 16 13 12 12 11 9 7 7 7 8 10 10 13 14 13 13 13 13 14 15 16 16 19 21 24 23
6 5 10 10 6 10 14 2 4 6 5 2 2 6 3 1 2 9 15 14 13 11 9 8 7 6 7 7 7 10 12 10 11 11 12 13 13 14 14 14 15 17 18 19
5 2 3 2 5 10 7 6 5 7 2 3 3 2 5 7 7 13 16 16 15 12 10 8 7 6 5 6 7 9 9 8 10 11 11 13 14 15 14 14 15 16 19 17
1 2 3 5 3 12 4 11 4 3 6 5 4 6 9 11 12 14 16 16 15 13 11 8 7 5 5 5 6 6 7 9 10 10 12 14 15 15 14 15 17 16 16 18
5 1 2 2 3 7 6 4 5 4 1 3 3 4 2 14 17 18 17 16 16 14 11 8 7 6 5 5 5 5 7 8 8 10 13 14 14 15 14 16 16 15 15 17
4 3 3 2 2 1 3 4 5 4 5 0 2 1 4 7 15 16 16 15 14 13 11 10 8 7 5 3 3 3 5 6 7 11 12 15 13 14 15 16 16 15 16 17
9 1 4 2 4 3 2 3 4 7 2 5 3 1 4 8 16 15 18 16 14 13 12 10 9 7 4 2 1 2 4 6 8 10 12 12 12 13 13 13 16 16 17 17
6 3 3 5 3 3 5 8 4 2 3 6 4 1 7 11 17 17 17 16 15 14 12 9 8 7 5 2 1 1 3 5 7 9 10 11 12 11 11 13 14 15 17 17
2 4 2 7 3 2 7 9 5 3 7 1 1 4 10 16 18 18 16 16 15 14 12 9 8 8 6 3 3 2 2 4 6 8 9 10 10 10 9 11 12 14 15 17
1 3 1 5 5 5 7 6 9 7 5 3 3 3 2 12 14 16 17 17 15 13 12 10 9 9 7 4 4 3 1 2 4 6 7 8 10 10 8 10 12 14 14 14
3 5 3 2 4 4 4 5 3 4 4 4 3 2 15 16 18 19 18 17 15 14 12 11 11 9 7 5 5 3 2 1 3 5 7 8 9 9 7 8 11 15 17 15
6 3 3 2 2 4 3 2 5 3 4 9 2 7 15 14 14 14 15 16 14 13 12 12 11 10 8 6 5 4 2 1 2 4 6 7 7 7 7 8 11 13 17 17
4 5 4 4 2 4 3 5 6 7 5 13 7 10 10 13 11 8 13 13 13 14 15 14 13 11 8 6 5 4 4 3 2 2 5 5 6 6 7 8 9 10 13 16
7 6 5 4 4 5 1 4 5 4 4 14 12 15 17 17 10 7 17 14 15 16 15 15 13 12 8 6 5 5 5 5 3 2 3 4 5 6 7 9 8 9 10 13
3 3 4 3 3 3 2 8 7 4 1 13 14 16 19 12 1 7 17 17 19 18 16 14 14 12 9 8 6 4 4 5 4 2 3 3 4 5 8 9 9 9 10 14
3 5 3 3 2 6 5 7 6 2 2 9 12 15 16 8 9 16 17 16 21 18 16 14 14 12 9 8 6 3 3 5 3 2 3 4 6 7 9 11 10 9 9 11
3 2 3 5 1 1 1 2 2 2 3 7 13 14 14 13 13 17 16 17 20 18 16 13 12 12 9 8 6 3 1 5 4 3 4 5 6 7 9 11 12 9 8 6
1 2 2 4 4 3 3 2 1 2 4 10 11 17 16 14 17 16 15 17 18 16 15 13 11 11 9 8 7 6 3 5 5 4 4 5 6 8 8 9 11 9 6 5
1 8 6 1 2 2 4 4 6 8 11 12 13 14 14 16 17 17 15 18 17 15 12 11 10 9 8 8 9 7 4 5 4 3 4 4 5 7 8 9 9 7 6 5
6 7 4 3 8 1 4 11 11 13 12 13 14 13 13 18 17 20 17 17 15 14 12 10 10 10 11 10 8 7 5 4 3 2 1 2 5 7 8 9 8 7 7 5
Wind_Direction
128 196 187 189 206 177 158 150 165 160 176 187 203 158 172 183 194 200 202 188 187 169 145 118 97 91 84 70 56 45 35 29 25 20 11 3 1 4 9 8 5 4 1 358
153 227 201 156 170 162 157 146 129 99 144 151 156 147 172 190 205 214 211 201 202 167 156 121 111 102 87 71 55 44 40 34 30 19 14 12 12 8 7 3 7 8 7 4
190 161 151 165 176 181 204 192 167 140 130 122 146 151 195 199 220 222 228 228 216 187 163 136 122 103 85 66 52 45 40 35 28 21 17 18 18 13 8 10 7 4 5 7
226 168 205 180 202 197 216 169 151 141 154 164 212 192 214 203 209 217 227 230 191 127 129 133 121 101 83 70 57 48 41 35 24 23 23 26 20 14 10 5 1 1 359 357
203 178 168 218 237 181 66 141 137 144 108 135 192 253 131 198 212 210 207 164 141 124 133 129 116 100 82 68 56 47 38 31 25 26 26 23 19 12 7 9 8 10 9 3
249 294 205 190 39 110 124 114 104 100 135 238 155 246 192 195 220 204 184 155 140 135 132 123 115 100 82 65 50 40 30 25 23 23 24 23 15 8 9 12 14 13 12 12
223 217 125 119 100 133 162 148 105 157 204 258 63 212 322 189 199 204 177 153 147 145 144 136 125 89 66 51 41 29 22 23 25 22 25 19 7 4 10 13 13 11 10 12
202 201 173 182 186 180 172 159 174 198 206 199 126 237 144 60 294 184 154 148 146 148 143 131 107 83 62 53 42 23 26 30 26 26 19 11 6 5 6 2 359 359 358 2
176 201 122 171 170 154 181 214 98 109 59 202 204 256 184 140 120 146 148 152 154 149 146 130 112 80 71 64 39 29 29 30 26 17 11 2 2 2 1 357 359 357 3 0
220 171 74 162 117 48 173 132 154 133 160 226 224 268 237 191 170 163 162 161 154 152 146 134 119 108 99 64 42 37 32 31 21 18 14 14 13 9 5 0 360 359 355 1
191 291 111 202 8 153 146 160 67 100 307 229 209 229 337 200 181 174 170 166 161 159 150 145 143 136 111 69 40 35 33 25 14 10 8 10 10 12 12 8 7 6 3 360
181 111 88 67 34 240 78 142 159 228 183 150 290 203 347 242 178 169 167 166 163 157 152 155 152 144 119 75 45 49 31 18 13 4 9 12 16 18 15 15 13 9 6 5
174 158 112 98 159 149 117 93 107 104 124 176 241 109 32 143 160 171 166 166 163 156 158 159 156 148 132 105 84 66 31 16 0 0 2 9 16 19 19 12 7 8 9 10
101 111 184 178 174 118 145 137 142 122 178 156 236 198 168 165 166 168 169 166 163 164 167 164 159 157 151 162 160 85 21 7 360 8 17 19 16 13 11 3 9 19 21 23
111 115 117 44 336 127 135 151 154 126 132 285 55 215 186 183 177 173 168 166 166 167 171 169 169 167 168 180 188 202 37 26 20 29 27 21 13 7 0 9 8 8 13 18
345 108 308 62 16 144 112 111 121 115 133 115 165 209 167 157 163 170 173 172 173 172 174 170 175 171 178 196 199 191 142 35 22 18 16 8 6 4 10 10 9 10 9 9
82 132 87 108 360 141 136 163 127 142 174 164 194 111 151 163 179 180 176 179 178 174 173 175 180 176 180 190 190 190 184 342 6 357 359 1 3 8 15 12 11 9 14 14
115 105 74 121 14 218 86 259 231 189 205 197 166 164 180 177 178 177 181 178 174 172 173 177 177 175 179 175 174 183 203 228 333 358 8 7 9 16 9 4 8 8 15 16
67 126 90 160 192 307 199 184 174 194 210 193 179 149 147 140 142 177 186 181 173 172 172 177 176 171 169 175 179 190 199 213 252 353 356 353 351 348 339 344 348 354 10 17
58 84 111 178 170 230 171 154 160 169 260 181 170 160 157 157 183 191 178 171 162 164 165 170 170 163 167 174 179 191 203 208 213 326 335 331 324 332 345 346 340 350 2 7
96 40 116 157 210 267 205 156 171 203 54 169 173 166 167 178 96 126 158 162 160 159 163 166 168 173 174 169 166 181 203 220 205 276 308 309 325 326 335 342 348 352 356 360
142 145 148 133 201 243 148 144 201 52 74 164 167 170 169 133 124 146 150 154 156 158 165 175 177 180 177 177 172 172 208 202 218 262 290 299 308 314 322 323 317 325 341 357
176 243 163 205 207 99 231 1 24 184 135 166 163 163 153 139 144 149 151 157 159 164 174 183 186 179 181 191 198 214 224 200 216 264 278 292 309 310 321 330 329 307 319 343
185 196 115 179 184 235 224 198 155 147 140 155 159 157 156 147 151 149 155 161 164 170 179 183 185 188 191 199 211 226 229 207 213 275 279 293 306 317 327 337 336 327 311 317
91 156 159 178 228 237 216 195 147 118 130 131 142 156 157 149 154 151 159 163 169 175 177 181 188 199 199 211 218 222 215 197 211 265 283 295 306 319 336 350 353 337 338 306
188 167 185 176 171 155 152 155 147 136 139 140 140 146 158 156 151 156 159 166 169 170 168 176 190 199 203 210 212 218 216 193 209 283 333 339 334 346 345 340 346 355 360 352
Height
776 784 790 782 782 783 787 797 809 823 820 827 830 838 837 837 837 838 837 839 841 844 848 853 854 856 857 858 857 855 853 850 849 848 847 845 842 839 836 834 831 828 825 821
782 785 776 778 785 786 790 800 820 827 824 826 835 842 839 836 834 832 834 836 839 843 847 853 857 858 859 858 858 857 854 851 850 850 848 846 844 842 839 836 832 829 825 821
781 777 774 779 788 788 785 789 813 816 829 829 836 847 844 838 835 832 832 833 836 839 845 854 857 858 859 859 859 858 855 853 852 850 848 846 843 841 839 836 832 829 825 822
778 769 776 780 783 777 784 780 794 814 816 832 827 830 841 836 836 833 830 831 837 844 850 854 856 858 860 861 861 860 857 855 854 852 849 846 845 843 842 839 835 830 826 822
774 774 776 779 769 768 791 780 795 805 812 816 831 827 830 833 836 830 831 837 842 846 850 854 856 860 862 863 862 861 859 857 856 853 851 850 849 847 844 840 836 831 827 822
769 760 763 764 770 769 781 790 798 803 807 819 821 824 822 833 825 824 829 838 843 847 852 856 859 862 863 863 863 862 861 860 858 856 855 854 852 849 846 841 836 832 828 823
771 765 761 761 783 779 779 784 815 823 821 818 823 824 811 814 815 815 826 839 844 848 852 856 860 862 863 864 864 864 863 862 861 860 858 856 853 850 846 843 839 835 830 825
779 783 763 753 761 768 779 777 795 825 827 814 821 817 808 819 820 813 826 835 843 849 854 857 861 863 864 866 866 866 865 865 864 862 860 856 853 850 847 844 841 837 833 829
779 772 751 751 750 750 779 786 784 812 826 818 814 813 818 823 826 825 830 835 842 849 854 858 862 864 866 867 867 867 867 866 864 862 859 856 853 850 847 844 841 838 833 829
761 774 756 756 748 757 759 772 794 793 828 829 821 819 800 821 824 828 832 835 843 849 855 860 863 866 867 868 868 868 867 865 864 862 859 856 853 850 847 844 841 838 834 830
753 764 766 756 765 761 772 775 792 791 801 804 815 802 803 800 810 821 828 835 842 847 853 859 864 866 867 868 868 868 866 865 864 862 859 856 853 851 848 846 842 839 835 830
752 766 777 773 762 759 759 769 771 780 809 809 804 797 809 805 808 820 827 835 841 846 854 860 863 865 866 868 868 868 866 866 864 862 860 857 854 852 850 848 844 841 837 833
748 773 783 778 768 763 766 777 781 786 790 805 801 795 811 804 814 821 827 835 841 848 854 859 862 863 866 867 868 868 867 866 864 863 860 858 856 854 852 850 846 842 839 835
744 770 767 780 768 760 772 777 778 775 785 798 793 796 814 815 816 823 829 835 841 847 852 855 859 862 865 867 867 868 867 866 865 863 861 860 858 856 853 851 847 844 840 836
746 770 772 774 768 765 766 771 776 777 784 787 791 794 797 806 812 821 827 835 841 846 850 854 858 861 864 866 867 867 867 866 865 863 862 861 860 857 855 852 848 845 841 838
752 776 773 779 772 766 776 778 780 784 791 795 795 794 796 804 814 823 828 833 837 842 847 852 857 860 863 865 866 867 867 866 865 865 864 863 861 858 855 853 850 847 843 840
757 769 775 791 783 772 782 778 779 782 784 783 787 781 798 811 815 818 824 829 833 839 844 851 855 858 861 864 865 866 866 866 866 866 865 864 862 860 857 854 852 848 844 840
762 772 778 794 789 802 777 775 774 775 779 781 786 791 792 798 808 815 821 826 831 837 843 849 854 858 861 863 864 865 866 867 867 866 865 864 862 861 859 857 853 850 846 843
749 765 788 794 803 787 773 776 775 774 773 774 780 791 799 807 816 822 821 825 830 836 842 848 852 856 859 860 862 864 865 866 866 865 864 863 862 861 859 857 854 851 848 844
754 751 772 800 793 794 763 765 762 764 776 768 777 789 799 805 807 800 818 825 831 836 842 847 852 855 857 859 861 862 863 864 864 864 863 863 862 861 859 855 853 851 848 845
764 769 775 788 780 772 761 762 762 783 775 769 775 784 792 794 795 801 814 823 828 834 841 847 851 854 856 858 859 860 861 862 862 863 863 862 862 860 858 855 853 851 849 846
757 766 773 783 783 781 760 766 769 765 772 770 776 783 790 798 803 808 814 822 828 834 841 846 849 852 856 858 858 858 859 860 861 861 861 861 861 859 856 855 853 851 848 846
762 759 759 762 759 766 766 766 767 768 768 773 777 784 790 797 804 809 816 823 828 835 840 846 848 851 854 856 857 857 857 858 859 860 860 859 858 857 855 853 851 850 848 846
761 762 757 763 764 765 766 767 768 768 769 774 779 785 792 797 804 810 818 823 828 834 839 844 848 850 852 853 854 855 856 856 857 858 857 857 856 855 853 851 850 848 846 845
751 758 762 763 765 766 765 765 765 769 773 777 783 787 792 798 805 810 818 824 828 834 839 843 846 849 851 852 853 854 855 855 856 856 855 854 854 853 851 850 849 847 845 843
746 750 748 745 744 750 755 762 767 770 775 779 783 791 797 800 805 812 819 824 829 833 838 843 845 847 848 849 851 854 855 855 855 855 854 853 852 852 850 849 847 846 844 842